Regional Weather Roundup
Issued by NWS

Home | Current Version | Previous Version | Graphics & Text | Print | Product List | Glossary On
Versions: 1 2 3 4 5 6 7 8 9 10 11 12 13 14 15 16 17 18 19 20 21 22 23 24 25 26 27
000
ASUS45 KTFX 171110
RWRMT
MONTANA REGIONAL WEATHER ROUNDUP
NATIONAL WEATHER SERVICE GREAT FALLS MT
400 AM MST FRI NOV 17 2017

NOTE: "FAIR" INDICATES FEW OR NO CLOUDS BELOW 12000 FEET WITH NO
SIGNIFICANT WEATHER AND/OR OBSTRUCTIONS TO VISIBILITY.

MTZ001>007-043-171200-
WEST OF THE DIVIDE

CITY           SKY/WX    TMP DP  RH WIND       PRES   REMARKS
KALISPELL      CLOUDY    34  31  88 SW10      29.61R WCI  26
MISSOULA       LGT SNOW  31  30  96 W6        29.68R VSB 1   WCI  25
BUTTE          CLOUDY    19  16  88 CALM      29.63S
MULLAN PASS    LGT SNOW  23  21  92 VRB7G18   29.58R FOG     WCI  15
ANACONDA         N/A     28  21  74 S6        29.63F WCI  22
EUREKA           N/A     36  30  80 MISG      29.59F
HAMILTON         N/A     34  30  86 CALM      29.68R
LIBBY            N/A     32  32 100 CALM      29.61S
RONAN            N/A     33  30  89 SE5       29.72S
$$

MTZ008-052>055-171200-
SOUTHWEST MONTANA

CITY           SKY/WX    TMP DP  RH WIND       PRES   REMARKS
BOZEMAN        FAIR      29  26  89 S5        29.63F
DILLON         FAIR      30  18  60 SW6       29.62F WCI  24
W YELLOWSTONE  LGT SNOW  32  30  93 SW8G20    29.64F WCI  25
ENNIS          CLOUDY    36  19  51 SE12      29.67F WCI  27
$$

MTZ009-010-012-014-046-048-049-054-171200-
EAST SLOPES AND CENTRAL MONTANA

CITY           SKY/WX    TMP DP  RH WIND       PRES   REMARKS
CUT BANK       FAIR      30  22  72 W16       29.49F WCI  19
GREAT FALLS    FAIR      30  19  63 SW13      29.57F WCI  20
MALMSTROM AFB  FAIR      29  21  71 SW13      29.58S WCI  19
HELENA         FAIR      33  25  72 SE8       29.63F WCI  26
BOWMANS CRNR   FAIR      28  19  69 S8        29.54F WCI  20
CHOTEAU          N/A     34  19  55 VRB3      29.55R
POWER          FAIR      27  19  71 SW6       29.55F WCI  20
RAYNESFORD     MOCLDY    35  17  48 SW13      29.58S WCI  26
ULM            FAIR      29  20  70 S12       29.58S WCI  19
$$

MTZ011-013-016-021-045-047-050-051-171200-
NORTH CENTRAL MONTANA

CITY           SKY/WX    TMP DP  RH WIND       PRES   REMARKS
HAVRE          FAIR      17  14  88 NE5       29.58S
LEWISTOWN      FAIR      30  21  69 SW9       29.59S WCI  22
N BAR RANCH    FAIR      28  16  59 VRB5      29.61F
CHINOOK          N/A     14  12  92 CALM      29.60F
DENTON         MOCLDY    31  18  60 S6        29.56S WCI  25
GEYSER         MOCLDY    29  18  64 SW16      29.58S WCI  17
GRASS RANGE    MOCLDY    31  20  64 W6        29.56S WCI  25
STANFORD       MOCLDY    35  16  47 W18       29.58S WCI  24
WINIFRED       MOCLDY    32  19  59 W7        29.58S WCI  26
$$

MTZ017>020-022>027-061-062-171200-
NORTHEAST MONTANA

CITY           SKY/WX    TMP DP  RH WIND       PRES   REMARKS
GLASGOW        FAIR      18  16  92 W3        29.63R
GLENDIVE       FAIR      28  22  78 CALM      29.64R
JORDAN           N/A     27  23  85 CALM      29.60F
SIDNEY         FAIR      21  18  88 CALM      29.66R
WOLF POINT     FAIR      14  10  84 SW3       29.65S
MALTA          CLEAR     12  10  92 CALM      29.62S
PLENTYWOOD       N/A     10   7  85 CALM      29.63F
POPLAR           N/A     14  10  85 NW5       29.65F
$$

MTZ028>42-056>058-171200-
SOUTHCENTRAL AND SOUTHEAST MONTANA

CITY           SKY/WX    TMP DP  RH WIND       PRES   REMARKS
BAKER          FAIR      31  29  92 CALM      29.63S
BILLINGS       CLOUDY    36  30  79 SW12      29.62F WCI  28
LIVINGSTON     CLOUDY    32  28  85 NW9       29.62S WCI  24
MILES CITY     FAIR      34  29  82 NW5       29.63S
BIG TIMBER     CLOUDY    32  28  86 W7        29.65R WCI  26
FORSYTH          N/A     36  34  93 CALM      29.62F
HARLOWTON      MOCLDY    28  23  84 W13       29.60F WCI  17
LAUREL           N/A     36  32  87 SW8       29.63S WCI  29
ROUNDUP          N/A     33  22  64 SW7       29.57S WCI  27
$$

REGIONAL REPORTS...DAKOTAS

CITY           SKY/WX    TMP DP  RH WIND       PRES   REMARKS
WILLISTON      FAIR      18  11  74 N7        29.64F WCI   9
MINOT          FAIR      20  13  74 NW6       29.64R WCI  12
DICKINSON      CLOUDY    32  24  72 NW6       29.60R WCI  26
BEACH          FAIR      28  25  86 CALM      29.66S
CROSBY         FAIR      12   7  79 W13       29.66F WCI  -3
TIOGA          FAIR      16  12  86 NW9       29.63F WCI   4
WATFORD CITY   FAIR      19  14  79 NW5       29.63F
BISMARCK       CLOUDY    35  32  88 NW5       29.62R
GRAND FORKS    CLOUDY    33  29  85 SW16      29.60R WCI  23
FARGO          FAIR      35  28  75 S15       29.60F WCI  25
BUFFALO SD       N/A     37  31  78 SE5       29.56F
RAPID CITY     LGT RAIN  39  34  82 NW12      29.66S WCI  32
$$

REGIONAL REPORTS...WYOMING/IDAHO/WASHINGTON

CITY           SKY/WX    TMP DP  RH WIND       PRES   REMARKS
GILLETTE       CLOUDY    33  32  96 CALM      29.63S
SHERIDAN       CLOUDY    33  33 100 N7        29.65R WCI  27
BUFFALO WY     FOG       33  30  88 SE7       29.63S VSB 1/2 WCI  27
CODY           CLOUDY    32  31  96 NE5       29.63R
YELLOWSTONE LA   N/A     28  25  88 VRB3      29.67S
IDAHO FALLS    MOCLDY    36  35  96 SW17      29.70F WCI  26
SALMON         FAIR      29  28  96 CALM      29.68S
BOISE          CLOUDY    41  34  76 SE3       29.79R
SPOKANE        MOCLDY    34  33  96 S15       29.67R WCI  24
$$

REGIONAL REPORTS...ALBERTA

CITY           SKY/WX    TMP DP  RH WIND       PRES   REMARKS
EDMONTON       FLURRIES   7   1  78 NW2       29.61
CALGARY        MOCLDY     1  -2  85 NW12      29.50R FOG     WCI -15
LETHBRIDGE     CLEAR     25  18  74 NW8       29.50R WCI  16
MEDICINE HAT   CLEAR      9   5  85 NE7       29.56S WCI  -3
$$

REGIONAL REPORTS...SASKATCHEWAN

CITY           SKY/WX    TMP DP  RH WIND       PRES   REMARKS
SWIFT CURRENT  CLEAR      1  -2  85 VRB2      29.56F
REGINA         FLURRIES  12   7  79 W12G21    29.63R WCI  -2
SASKATOON      PTCLDY     0  -4  85 W12       29.63R WCI -18
$$




USA.gov is the U.S. government's official web portal to all federal, state and local government web resources and services.